Theta_e
320 323 324 324 324 326 325 327 326 327 323 319 319 318 316 319 323 325 321 320 321 322 322 319 318 320 320 325 323 322 320 319 319 316 315 317 318 320 319 319 318 319 319
319 321 322 323 322 323 327 327 324 326 324 320 322 324 319 319 320 319 321 322 322 321 318 320 318 320 318 319 321 322 319 319 320 314 313 308 313 316 318 319 316 316 319
316 317 318 319 320 322 325 324 326 326 325 325 320 319 318 315 315 315 317 318 320 319 320 321 320 319 319 317 319 321 318 316 318 317 313 308 306 311 314 315 316 315 317
316 316 316 317 318 318 320 322 326 322 319 324 320 319 314 311 314 316 318 317 321 320 320 318 319 321 319 318 319 319 318 318 314 317 318 317 315 307 305 311 312 315 314
314 314 314 317 321 319 320 322 321 319 320 321 320 316 315 314 315 316 315 316 314 318 318 317 318 320 320 318 319 319 318 318 317 315 316 315 314 314 309 305 308 313 313
314 315 318 320 319 317 317 318 318 318 319 318 318 315 314 314 313 313 313 313 314 315 317 318 319 319 319 318 320 321 320 319 318 317 316 313 311 310 309 307 307 307 311
314 315 314 316 315 313 314 313 315 314 315 314 315 315 315 314 312 312 311 312 312 313 315 316 317 317 318 318 318 318 318 318 317 316 315 315 314 314 312 310 308 306 310
313 312 313 313 311 311 311 311 311 312 312 313 313 314 313 311 311 311 311 311 312 314 316 316 317 317 318 318 317 315 315 318 318 316 316 315 314 315 314 311 308 304 306
311 311 312 312 309 310 311 311 311 312 312 313 312 312 311 310 310 310 311 310 312 313 314 315 315 315 317 317 317 313 313 316 317 317 317 315 315 316 316 314 312 307 301
310 310 308 310 312 312 310 312 310 310 311 311 311 310 310 310 310 309 308 309 310 313 312 311 313 315 315 316 315 313 313 313 314 315 314 314 315 314 315 313 313 311 306
307 308 308 309 309 309 308 310 309 309 309 309 311 309 308 309 310 309 308 308 309 312 311 311 313 312 313 315 315 313 313 312 313 314 314 314 314 313 313 313 312 310 309
307 308 308 307 307 307 306 307 308 307 307 310 310 309 309 309 309 308 308 309 309 312 312 312 312 312 312 313 313 311 311 311 311 311 312 312 314 313 313 312 311 310 308
307 306 306 305 305 305 306 306 307 308 307 308 309 307 308 307 308 309 309 310 310 310 311 311 311 310 311 310 311 312 312 312 312 311 312 313 313 311 312 312 311 309 308
306 305 305 304 304 305 306 306 308 308 308 308 309 308 309 309 308 307 308 310 310 310 310 312 311 311 309 308 309 311 311 312 312 313 314 312 310 309 309 310 309 309 308
304 304 304 303 303 305 307 307 309 308 310 309 308 309 310 311 309 310 310 310 310 310 310 310 310 311 308 305 306 311 310 311 312 313 313 311 310 309 309 309 310 310 308
304 304 303 304 304 305 306 307 309 309 310 310 308 308 309 311 310 311 310 309 308 308 310 310 310 309 306 303 305 308 310 310 309 310 311 313 312 311 308 308 308 307 306
304 304 304 304 306 305 308 308 309 310 309 309 309 310 311 309 311 311 311 310 310 309 308 308 309 309 307 302 303 306 309 309 310 310 310 310 311 312 313 313 310 309 309
304 305 306 306 307 308 309 310 311 309 309 309 310 311 310 309 312 312 312 312 313 311 309 309 310 311 306 301 301 303 311 310 311 311 312 313 312 305 306 307 311 312 313
306 307 308 308 308 308 310 310 310 310 309 309 310 311 312 311 311 311 312 314 315 313 314 314 313 310 308 300 300 306 313 314 313 312 311 311 311 301 300 312 312 312 313
308 307 308 308 308 309 311 310 309 309 308 310 311 312 313 313 313 314 315 316 315 310 315 315 316 309 310 299 299 302 312 313 314 313 310 303 304 301 300 306 311 311 310
308 309 308 308 309 310 310 309 311 308 311 312 313 314 314 311 314 317 317 316 316 313 315 313 316 316 312 309 300 299 307 311 312 311 312 311 301 302 300 299 304 310 304
307 308 307 308 310 311 310 309 310 313 313 313 314 314 316 316 318 317 317 312 314 311 314 315 315 315 314 303 303 303 304 304 311 312 314 314 303 301 299 300 305 298 300
307 309 308 308 310 311 313 311 312 313 314 314 314 315 316 317 316 314 311 308 309 310 310 309 313 308 306 304 303 304 301 305 311 314 309 303 300 298 301 301 299 299 313
307 309 308 308 309 312 312 314 314 314 314 314 314 315 317 316 316 312 309 306 305 306 306 308 305 307 307 303 302 302 305 306 309 306 306 309 308 302 304 309 311 312 311
309 310 309 310 310 312 313 313 314 316 314 314 314 316 314 315 313 308 304 306 301 298 302 301 303 300 300 299 294 294 299 300 300 297 312 312 312 310 310 310 311 309 308
310 310 311 311 311 312 312 314 316 316 316 314 314 314 312 315 315 310 306 294 295 295 293 292 296 302 294 293 293 294 294 294 294 304 310 309 309 308 308 308 307 308 306
Wind_Speed
9 8 7 8 5 7 4 7 8 6 6 8 6 5 7 7 2 3 10 6 5 5 5 4 8 6 5 4 5 6 6 6 6 4 7 8 9 4 2 2 1 4 3
11 9 6 5 4 3 7 7 7 7 5 4 5 2 5 7 3 4 4 4 5 4 6 5 6 7 7 7 5 3 5 5 6 4 4 5 2 2 1 1 3 3 1
5 6 9 6 4 3 7 6 5 5 3 7 7 6 6 7 5 7 5 6 6 5 6 6 6 7 7 7 7 5 6 5 4 3 4 3 2 3 2 2 4 2 1
9 8 10 7 7 9 5 3 4 7 5 6 6 7 6 6 5 5 5 6 4 5 6 7 8 4 5 7 4 6 6 4 4 3 4 4 1 1 2 4 4 4 3
11 5 5 6 8 7 3 8 10 9 10 8 6 6 8 8 7 6 8 6 7 6 9 5 7 5 5 6 5 5 6 3 2 3 3 1 3 1 2 2 1 2 3
5 2 4 5 2 6 9 7 9 8 8 8 10 11 9 9 7 7 6 6 6 7 8 9 6 5 5 5 4 4 5 4 4 3 2 2 1 2 1 1 1 3 4
5 3 6 3 2 11 11 10 11 11 11 11 11 10 10 10 9 8 6 8 5 6 8 8 6 5 5 5 5 4 4 4 3 2 1 2 2 1 2 0 1 2 3
10 7 9 11 11 14 11 9 9 11 9 8 9 8 9 7 8 9 8 7 6 5 7 6 5 6 6 6 5 5 5 5 3 3 1 2 1 4 2 1 2 4 4
9 7 4 9 15 8 9 9 11 10 10 10 9 10 9 9 9 10 7 6 7 6 8 7 5 5 5 5 4 5 6 4 4 5 4 3 4 3 2 2 2 3 3
9 8 13 11 10 12 13 14 12 10 10 8 9 9 10 10 8 8 9 9 8 7 6 5 5 5 4 5 6 4 3 5 5 3 3 3 3 1 2 2 3 3 1
8 11 12 13 14 15 13 11 11 10 10 9 10 9 10 9 7 8 7 7 6 6 5 5 4 5 5 4 1 2 1 1 3 5 4 2 2 3 4 4 4 2 3
15 13 16 14 14 16 12 10 10 10 8 11 9 8 9 9 9 8 9 7 5 5 4 7 6 5 3 6 6 6 8 7 6 4 7 7 5 6 5 4 5 4 4
12 13 12 12 14 10 10 11 8 9 4 10 11 10 9 8 9 9 7 6 7 6 8 6 5 5 6 8 9 7 5 6 6 5 6 5 6 5 4 4 3 3 2
14 12 11 12 10 7 8 9 9 9 11 9 10 11 8 9 7 5 7 7 7 6 6 4 7 7 9 9 9 9 8 5 5 6 7 8 7 6 6 4 3 2 1
13 10 11 9 9 7 9 9 9 7 8 7 10 9 9 8 7 9 9 10 9 7 8 8 7 6 9 7 8 7 6 8 6 5 6 6 5 5 4 3 2 2 2
11 10 10 10 11 8 8 8 8 8 7 8 7 5 7 7 8 8 7 6 7 9 9 9 8 9 7 9 10 9 6 6 5 7 5 3 4 3 1 3 4 3 4
7 9 9 6 7 7 6 7 8 7 9 8 10 6 6 8 7 5 6 5 6 5 6 6 7 7 6 8 9 12 5 5 5 5 5 4 3 2 6 6 8 7 7
10 9 8 7 6 5 8 7 8 6 5 6 8 10 7 6 5 4 5 6 5 6 4 2 2 4 4 6 6 7 4 5 2 2 3 5 6 5 5 7 7 3 5
6 6 6 6 4 7 6 8 8 8 7 6 9 8 8 7 8 8 9 6 4 4 3 4 6 5 5 4 6 7 3 0 1 5 5 6 5 5 8 7 7 5 5
6 6 7 4 4 6 7 7 8 6 6 7 7 6 6 7 7 6 3 2 5 4 5 4 4 6 3 1 3 3 4 5 1 5 4 2 2 6 6 4 5 4 4
6 5 3 4 5 5 6 7 6 6 5 5 4 4 2 2 4 5 6 6 5 4 3 3 5 5 5 4 4 4 6 5 4 3 3 3 6 8 8 6 5 3 4
4 6 3 3 3 6 5 6 5 5 4 4 6 5 4 4 2 4 2 4 2 4 4 2 4 4 5 10 10 12 10 6 5 3 1 2 6 8 9 6 10 9 5
2 5 2 3 3 4 5 5 4 3 5 5 2 2 2 2 4 6 7 6 6 5 5 3 3 6 5 5 12 14 15 9 4 6 6 11 13 10 7 11 11 7 4
1 3 2 2 3 5 3 4 4 3 4 4 3 3 2 4 6 5 6 6 6 6 7 6 7 6 5 5 6 7 9 10 7 8 9 9 9 13 7 5 3 3 6
2 1 1 4 4 5 4 2 1 4 4 6 5 2 6 1 3 5 4 4 3 4 4 4 4 5 4 4 5 5 6 6 7 10 5 4 4 5 5 5 6 5 6
4 3 4 3 3 3 4 4 3 2 3 5 4 4 4 5 4 5 4 6 4 6 7 5 5 1 2 7 9 10 11 14 12 4 4 4 4 5 5 5 6 5 6
Wind_Direction
148 156 114 95 111 98 71 64 66 35 24 1 350 346 340 325 348 68 38 42 19 346 340 338 323 331 313 303 256 245 247 242 234 256 262 254 249 136 167 172 145 107 86
141 137 157 159 132 105 92 76 69 45 38 360 315 6 321 318 349 94 58 6 323 342 313 328 302 302 318 313 315 324 255 242 248 221 269 288 27 62 168 135 139 118 105
80 96 62 12 37 47 82 70 76 49 44 15 354 2 356 340 359 349 353 347 330 336 304 314 296 327 325 311 338 332 292 254 266 260 266 358 19 341 29 45 15 148 292
116 76 67 53 30 8 32 56 55 46 37 16 356 345 319 326 332 303 349 319 324 291 286 334 318 336 316 318 327 317 307 286 282 325 6 325 119 351 354 27 322 343 306
104 103 57 63 10 280 189 48 49 37 37 15 1 345 357 339 328 358 342 350 323 336 25 345 328 339 330 319 333 333 319 306 297 302 315 351 285 245 141 248 203 242 293
108 51 109 72 277 264 22 29 48 31 11 356 7 18 3 348 348 359 357 339 334 356 5 350 336 336 331 338 336 343 347 334 317 291 316 301 292 6 16 16 333 252 263
32 76 71 37 302 18 12 24 24 3 358 26 8 13 356 345 341 352 345 329 325 0 345 341 337 349 357 9 3 7 343 354 341 314 314 259 253 151 65 3 290 293 290
40 53 36 24 4 49 43 30 13 19 19 23 10 357 360 4 360 356 345 339 350 340 340 337 358 20 18 30 26 36 8 355 2 8 116 245 262 104 110 72 302 300 220
62 33 24 31 71 43 29 16 31 12 20 7 354 30 19 9 13 351 351 351 352 344 8 13 28 42 24 26 23 50 5 19 17 60 24 14 54 65 39 294 277 336 341
73 26 53 49 33 15 45 26 31 21 0 344 25 28 11 350 15 347 1 356 351 359 9 354 36 37 31 21 28 20 44 23 357 43 4 7 37 247 141 305 294 51 49
17 43 51 38 15 23 16 23 10 6 358 44 38 11 1 356 1 360 2 341 334 359 6 347 34 35 4 16 328 222 257 76 19 10 359 317 213 27 19 29 33 16 9
37 21 36 24 13 26 24 2 9 8 13 40 5 16 4 0 6 358 0 350 326 353 13 14 5 12 19 4 5 22 11 10 9 29 34 31 40 48 36 44 49 77 71
38 39 30 14 42 17 3 31 2 17 30 39 17 15 8 3 0 4 4 4 351 15 358 21 17 21 37 24 12 0 18 6 359 23 38 45 40 28 39 48 52 27 77
48 45 20 36 37 12 33 359 12 8 36 17 21 20 14 8 4 360 346 11 359 2 335 356 40 45 50 25 9 7 7 13 41 39 54 45 41 24 2 61 32 356 321
55 28 30 37 19 25 27 16 3 27 9 38 19 12 357 22 19 22 21 23 24 23 22 22 22 20 49 26 3 351 354 19 35 42 73 68 58 53 35 354 18 291 341
53 18 43 30 51 16 10 8 12 13 18 30 48 339 345 23 20 18 32 26 27 29 18 20 27 32 52 3 360 352 37 14 12 39 30 86 56 127 78 264 272 321 344
28 30 59 34 36 12 24 7 13 22 15 6 4 8 354 24 360 25 13 25 35 38 32 21 19 34 39 15 9 358 50 45 31 24 29 353 111 3 342 313 242 252 246
42 27 40 39 33 21 23 357 5 8 27 351 6 354 11 14 13 28 31 21 31 39 36 6 313 81 58 22 359 330 63 71 100 98 308 337 82 37 348 312 300 226 204
47 50 46 52 36 33 5 11 354 353 21 357 8 7 15 35 30 31 32 29 46 42 17 41 61 71 78 33 11 354 317 178 113 83 45 348 52 357 352 347 7 24 14
40 32 70 44 29 20 22 350 353 25 0 355 1 1 19 26 15 20 59 3 346 4 12 66 84 95 96 6 4 334 305 334 168 130 137 69 344 318 343 332 309 331 328
36 58 66 63 33 13 350 343 343 16 351 2 349 11 66 348 331 327 338 350 4 340 336 360 97 68 52 60 1 337 310 353 324 145 145 158 233 265 276 272 284 301 332
20 86 12 49 3 16 347 355 18 338 17 27 12 23 15 31 319 297 347 322 32 352 72 57 70 96 75 29 7 346 342 345 320 44 13 292 253 278 292 297 276 306 280
359 89 355 17 13 353 10 1 26 346 30 5 348 110 335 335 301 57 25 32 18 22 19 41 353 77 48 22 2 348 339 318 330 337 322 301 301 293 285 268 282 300 291
280 85 323 351 40 10 7 43 27 22 336 342 341 295 46 4 9 49 56 26 18 13 16 18 24 25 54 25 351 348 340 350 3 343 309 286 268 288 283 314 25 351 7
56 112 17 40 15 61 60 61 23 360 360 322 278 299 318 76 90 59 23 60 32 13 34 359 50 13 9 353 295 289 323 326 311 319 308 24 13 17 13 12 17 37 10
38 339 70 323 91 107 84 44 23 330 328 343 326 337 311 296 183 154 128 52 24 330 337 324 57 154 157 316 308 312 317 317 332 318 27 19 17 18 19 18 14 19 7